Location: Treviso
(45.6669°N, 12.2430°E)
Time: 02:42:28
(UTC+01:00)

ISS - Pass Details

Date: 20 May 2017
Orbit: 402 x 406 km, 51.6° (Epoch: 16 December)

Event Time Altitude Azimuth Distance (km) Brightness Sun altitude
Exits shadow 02:16:26 24° 308° (NW) 918 -1.9 -22.5°
Maximum altitude 02:17:41 32° 350° (N) 747 -2.0 -22.4°
Drops below altitude 10° 02:20:43 10° 55° (NE) 1,488 -0.3 -22.3°
Sets 02:22:57 0° 66° (ENE) 2,347 0.7 -22.2°
